Weather History for Seattle Boeing, WA

Change the Weather History Date:

Thursday, February 14, 2013

  Actual Average Record
Temperature  
Mean Temperature 48 °F -  
Max Temperature 51 °F 48 °F 63 °F (1991)
Min Temperature 44 °F 37 °F 22 °F (1990)
Degree Days  
Heating Degree Days 18    
Moisture  
Dew Point 41 °F    
Average Humidity 79    
Maximum Humidity 86    
Minimum Humidity 71    
Precipitation  
Precipitation 0.03 in - - ()
Sea Level Pressure  
Sea Level Pressure 30.54 in    
Wind  
Wind Speed 5 mph (SSE)    
Max Wind Speed 9 mph    
Max Gust Speed -    
Visibility 10 miles    
Events Rain    
Averages and records for this station are not official NWS values.
T = Trace of Precipitation, MM = Missing Value Source: NWS Daily Summary

Daily Weather History Graph

Daily Weather History Graph

Search for Another Location

Airport:

Trip Planner

Search our weather history database for the weather conditions in past years. The results will help you decide how hot, cold, wet, or windy it might be!

Date:

Astronomy

Feb. 14, 2013 Rise Set
Actual Time 7:15 AM PST 5:31 PM PST
Civil Twilight 6:44 AM PST 6:03 PM PST
Nautical Twilight 6:08 AM PST 6:39 PM PST
Astronomical Twilight 5:32 AM PST 7:15 PM PST
Moon 8:56 AM PST (2/14) 11:06 PM PST (2/14)
Length of Visible Light 11h 19m
Length of Day
10h 15m
Waxing Crescent, 22% of the Moon is Illuminated
Feb 14
Waxing Crescent
Feb 17
First Quarter
Feb 25
Full
Mar 4
Last Quarter
Mar 11
New

Hourly Weather History & Observations

Time (PST) Temp. Windchill Dew Point Humidity Pressure Visibility Wind Dir Wind Speed Gust Speed Precip Events Conditions
12:53 AM 46.0 °F 43.9 °F 41.0 °F 83% 30.52 in 10.0 mi SSE 4.6 mph - N/A   Overcast
1:51 AM 46.4 °F 42.9 °F 39.2 °F 76% 30.52 in 10.0 mi SSE 6.9 mph - N/A   Overcast
1:53 AM 46.0 °F 42.5 °F 39.9 °F 79% 30.52 in 10.0 mi SSE 6.9 mph - N/A   Overcast
2:53 AM 46.0 °F 42.5 °F 39.0 °F 76% 30.52 in 10.0 mi South 6.9 mph - N/A   Overcast
3:00 AM 46.4 °F 42.9 °F 39.2 °F 76% 30.51 in 10.0 mi SSE 6.9 mph - N/A   Overcast
3:41 AM 44.6 °F 40.2 °F 39.2 °F 81% 30.50 in 10.0 mi SSE 8.1 mph - N/A   Overcast
3:53 AM 45.0 °F 40.6 °F 39.0 °F 80% 30.51 in 10.0 mi SE 8.1 mph - N/A   Overcast
4:10 AM 44.6 °F 39.7 °F 39.2 °F 81% 30.50 in 10.0 mi SE 9.2 mph - N/A   Overcast
4:33 AM 44.6 °F 39.7 °F 39.2 °F 81% 30.51 in 10.0 mi SSE 9.2 mph - N/A   Overcast
4:53 AM 44.1 °F 40.1 °F 39.0 °F 82% 30.51 in 10.0 mi SE 6.9 mph - N/A   Overcast
5:53 AM 45.0 °F 42.6 °F 39.0 °F 80% 30.53 in 10.0 mi SE 4.6 mph - 0.00 in Rain Light Rain
6:53 AM 44.1 °F 39.5 °F 39.9 °F 85% 30.52 in 10.0 mi SE 8.1 mph - 0.01 in Rain Light Rain
7:53 AM 45.0 °F 41.2 °F 39.9 °F 82% 30.53 in 10.0 mi SE 6.9 mph - 0.01 in   Overcast
8:53 AM 45.0 °F 42.6 °F 41.0 °F 86% 30.55 in 10.0 mi SE 4.6 mph - 0.00 in   Overcast
9:53 AM 46.0 °F 42.5 °F 42.1 °F 86% 30.55 in 5.0 mi SSE 6.9 mph - 0.01 in   Overcast
10:53 AM 46.9 °F - 39.9 °F 77% 30.56 in 10.0 mi SSE 4.6 mph - N/A   Overcast
11:53 AM 48.9 °F - 41.0 °F 74% 30.55 in 10.0 mi SE 6.9 mph - N/A   Overcast
12:53 PM 48.9 °F - 41.0 °F 74% 30.56 in 10.0 mi SSE 4.6 mph - N/A   Overcast
1:53 PM 50.0 °F - 41.0 °F 71% 30.55 in 10.0 mi SSE 4.6 mph - N/A   Overcast
2:53 PM 50.0 °F - 42.8 °F 76% 30.54 in 10.0 mi SSE 4.6 mph - N/A   Overcast
3:53 PM 51.1 °F - 42.1 °F 71% 30.55 in 10.0 mi Calm Calm - N/A   Overcast
4:53 PM 50.0 °F - 43.0 °F 77% 30.54 in 10.0 mi Calm Calm - N/A   Overcast
5:29 PM 50.0 °F - 42.8 °F 76% 30.53 in 10.0 mi Calm Calm - N/A   Overcast
5:53 PM 50.0 °F - 43.0 °F 77% 30.54 in 10.0 mi Calm Calm - N/A   Overcast
6:53 PM 48.9 °F - 44.1 °F 83% 30.56 in 10.0 mi West 5.8 mph - N/A   Overcast
7:53 PM 48.9 °F - 43.0 °F 80% 30.56 in 10.0 mi Calm Calm - N/A   Overcast
8:00 PM 48.2 °F - 42.8 °F 82% 30.56 in 10.0 mi Calm Calm - N/A   Overcast
8:53 PM 48.9 °F - 43.0 °F 80% 30.56 in 10.0 mi Calm Calm - N/A   Overcast
9:53 PM 48.9 °F - 43.0 °F 80% 30.55 in 10.0 mi Calm Calm - N/A   Overcast
9:59 PM 48.2 °F - 42.8 °F 82% 30.55 in 10.0 mi Calm Calm - N/A   Overcast
10:53 PM 48.9 °F - 43.0 °F 80% 30.55 in 10.0 mi Calm Calm - N/A   Overcast
11:53 PM 48.9 °F - 43.0 °F 80% 30.55 in 10.0 mi Calm Calm - N/A   Overcast